Regional Weather Roundup
Issued by NWS

Home | Current Version | Previous Version | Text Only | Print | Product List | Glossary On
Versions: 1 2 3 4 5 6 7 8 9 10 11 12 13 14 15 16 17 18 19 20 21 22 23 24 25 26 27 28 29 30 31 32 33 34 35 36 37 38 39 40 41 42 43 44 45 46 47 48 49 50
000
ASUS44 KLIX 221410
RWRLA
LOUISIANA WEATHER ROUNDUP
NATIONAL WEATHER SERVICE NEW ORLEANS LA
900 AM CDT MON SEP 22 2014

NOTE: "FAIR" INDICATES FEW OR NO CLOUDS BELOW 12,000 FEET WITH NO
      SIGNIFICANT WEATHER AND/OR OBSTRUCTIONS TO VISIBILITY.
      SKY/WX - SKY CONDITION AND SIGNIFICANT WEATHER.
      TMP - AIR TEMPERATURE.    DP   - DEWPOINT TEMPERATURE.
      RH  - RELATIVE HUMIDITY.  PRES - PRESSURE.
      HX  - HEAT INDEX.         WCI  - WIND CHILL INDEX.

*  THESE STATIONS ARE NOT NWS OR FAA STATIONS AND ARE NOT UNDER
   NWS QUALITY CONTROL.

LAZ040-048-061>063-065-066-069-221500-
SOUTHEAST LOUISIANA

CITY           SKY/WX    TMP DP  RH WIND       PRES   REMARKS
N.O. AUDUBON     N/A     80  76  87 MISG        N/A
N.O. INTL ARPT MOSUNNY   82  70  66 N7        30.04R
N.O. LAKEFRONT SUNNY     82  73  74 N8        30.05R
N.O. DOWNTOWN* FAIR      81  70  69 NW3       30.05R
SLIDELL        SUNNY     78  69  73 NW5       30.04R
BATON ROUGE    SUNNY     77  69  76 VRB5      30.06R
BOOTHVILLE     SUNNY     82  75  79 N8        30.03S
BELLE CHASSE   MOSUNNY   82  73  74 N7        30.04R
BOGALUSA*        N/A     75  68  79 N5        30.08R
GALLIANO*      NOT AVBL
NEW ROADS*     FAIR      75  71  87 N8        30.07R
GONZALES*      FAIR      76  72  87 N3        30.05R
HAMMOND*       SUNNY     77  68  73 N6        30.06S
HOUMA*         SUNNY     79  61  53 N7        30.04R
PORT FOURCHON* SUNNY     82  72  69 NE10      30.06S

$$

LAZ041-044-053-054-221500-
SOUTHWEST LOUISIANA

CITY           SKY/WX    TMP DP  RH WIND       PRES   REMARKS
LAKE CHARLES   SUNNY     78  71  79 NE10      30.07R
LAFAYETTE      SUNNY     79  72  79 NE5       30.06R
PATTERSON      MOSUNNY   79  72  78 N6        30.08R
SALT POINT       N/A     81  73  76 VRB5      30.04R
NEW IBERIA     SUNNY     79  72  79 CALM      30.06S
CHENAULT AIRPK SUNNY     75  72  88 NE10      30.08R

$$

LAZ027-028-221500-
CENTRAL LOUISIANA

CITY           SKY/WX    TMP DP  RH WIND       PRES   REMARKS
FORT POLK      SUNNY     75  62  64 NE13G21   30.10R
ALEXANDRIA INT PTSUNNY   74  60  61 VRB6      30.09R
ALEXANDRIA     CLOUDY    74  63  68 VRB6      30.10R

$$

LAZ001-002-221500-
NORTHWEST LOUISIANA

CITY           SKY/WX    TMP DP  RH WIND       PRES   REMARKS
SHREVEPORT     SUNNY     73  54  51 NE15      30.16R
BARKSDALE AFB  PTSUNNY   71  54  55 NE6       30.17R
DTN SHREVEPORT SUNNY     70  54  56 NE7       30.17R

$$

LAZ014-016-221500-
NORTHEAST LOUISIANA

CITY           SKY/WX    TMP DP  RH WIND       PRES   REMARKS
MONROE         SUNNY     72  55  55 NE10G17   30.16R
TALLULAH       MOSUNNY   72  58  61 N14       30.13R

$$



USA.gov is the U.S. government's official web portal to all federal, state and local government web resources and services.